ロニオス彗星

C/2006 S3 ( LONEOS )

English version
Home page
Updated on December 24, 2012

---------------------------------------------------------------------

・ プロフィール

発見日 2006年9月19日
発見光度 19.0等
発見者 Lowell Observatory Near-Earth Object Search

・ 写真集

・ 軌道要素

Epoch 2012 Apr. 23.0 TT = JDT 2456040.5
T 2012 Apr. 16.33810 TT                                 MPC
q   5.1311098            (2000.0)            P               Q
z  -0.0006789      Peri.  140.13061     -0.21558107     -0.96492305
 +/-0.0000002      Node    38.37042     -0.94613668     +0.24436341
e   1.0034836      Incl.  166.03270     -0.24155785     -0.09596892
From 4071 observations 2006 Aug. 29-2012 Sept. 13, mean residual 0".5.

・ 星図

・ 光度変化

        m1 = 4.0 + 5 logΔ + 7.5 log r(t -  300)

---------------------------------------------------------------------

軌道要素はM.P.E.C. 2012-S31に掲載されたものです。
星図は StellaNavigator Ver.2.0 for Windows (アストロアーツ編著 / アスキー出版局刊) で作成したものです。
光度グラフはComet for Windowsで作成したものです。

---------------------------------------------------------------------

Copyright(C) Seiichi Yoshida (comet@aerith.net). All rights reserved.